Radioactive Concentration measured by Seawater Radiation Monitor near Fukushima Daiichi Nuclear Power Station
Date,Time,Cs137(Bq/L),Cs134(Bq/L),Total β(Bq/L)
2017/02/16,00:00,0.90,0.075,ND
2017/02/16,00:10,0.89,0.075,ND
2017/02/16,00:20,0.89,0.075,ND
2017/02/16,00:30,0.88,0.079,ND
2017/02/16,00:40,0.90,0.078,ND
2017/02/16,00:50,0.87,0.091,ND
2017/02/16,01:00,0.85,0.084,ND
2017/02/16,01:10,0.87,0.081,ND
2017/02/16,01:20,0.86,0.078,9.6
2017/02/16,01:30,0.86,0.078,11
2017/02/16,01:40,0.85,0.079,13
2017/02/16,01:50,0.84,0.083,10
2017/02/16,02:00,0.83,0.088,10
2017/02/16,02:10,0.83,0.090,9.5
2017/02/16,02:20,0.84,0.079,ND
2017/02/16,02:30,0.83,0.075,ND
2017/02/16,02:40,0.81,0.080,ND
2017/02/16,02:50,0.82,0.074,ND
2017/02/16,03:00,0.85,0.066,ND
2017/02/16,03:10,0.84,0.058,ND
2017/02/16,03:20,0.80,0.075,ND
2017/02/16,03:30,0.83,0.065,ND
2017/02/16,03:40,0.84,0.064,ND
2017/02/16,03:50,0.84,0.062,ND
2017/02/16,04:00,0.83,0.071,ND
2017/02/16,04:10,0.84,0.068,ND
2017/02/16,04:20,0.84,0.083,ND
2017/02/16,04:30,0.82,0.092,ND
2017/02/16,04:40,0.82,0.093,ND
2017/02/16,04:50,0.82,0.092,ND
2017/02/16,05:00,0.83,0.10,ND
2017/02/16,05:10,0.82,0.11,ND
2017/02/16,05:20,0.83,0.091,ND
2017/02/16,05:30,0.85,0.091,ND
2017/02/16,05:40,0.82,0.094,ND
2017/02/16,05:50,0.83,0.096,ND
2017/02/16,06:00,0.83,0.091,ND
2017/02/16,06:10,0.82,0.085,ND
2017/02/16,06:20,0.81,0.093,ND
2017/02/16,06:30,0.82,0.084,8.8
2017/02/16,06:40,0.86,0.072,ND
2017/02/16,06:50,0.86,0.063,ND
2017/02/16,07:00,0.84,0.064,ND
2017/02/16,07:10,0.86,0.068,ND
2017/02/16,07:20,0.86,0.071,ND
2017/02/16,07:30,0.84,0.079,ND
2017/02/16,07:40,0.84,0.073,ND
2017/02/16,07:50,0.81,0.090,ND
2017/02/16,08:00,0.83,0.085,ND
2017/02/16,08:10,0.83,0.086,11
2017/02/16,08:20,0.81,0.084,12
2017/02/16,08:30,0.80,0.088,11
2017/02/16,08:40,0.80,0.090,11
2017/02/16,08:50,0.83,0.080,8.8
2017/02/16,09:00,0.83,0.077,8.8
2017/02/16,09:10,0.82,0.082,ND
2017/02/16,09:20,0.86,0.080,ND
2017/02/16,09:30,0.86,0.088,ND
2017/02/16,09:40,0.89,0.088,ND
2017/02/16,09:50,0.92,0.089,ND
2017/02/16,10:00,0.95,0.089,ND
2017/02/16,10:10,0.95,0.085,ND
2017/02/16,10:20,0.95,0.090,ND
2017/02/16,10:30,0.96,0.078,ND
2017/02/16,10:40,0.93,0.087,ND
2017/02/16,10:50,0.90,0.082,ND
2017/02/16,11:00,0.86,0.087,ND
2017/02/16,11:10,0.88,0.083,ND
2017/02/16,11:20,0.85,0.083,ND
2017/02/16,11:30,0.83,0.087,ND
2017/02/16,11:40,0.84,0.078,ND
2017/02/16,11:50,0.84,0.076,ND
2017/02/16,12:00,0.84,0.081,ND
2017/02/16,12:10,0.84,0.080,10
2017/02/16,12:20,0.84,0.075,9.9
2017/02/16,12:30,0.85,0.070,ND
2017/02/16,12:40,0.85,0.066,ND
2017/02/16,12:50,0.85,0.068,ND
2017/02/16,13:00,0.85,0.066,ND
2017/02/16,13:10,0.85,0.061,ND
2017/02/16,13:20,0.86,0.074,ND
2017/02/16,13:30,0.87,0.074,ND
2017/02/16,13:40,0.88,0.072,ND
2017/02/16,13:50,0.86,0.076,ND
2017/02/16,14:00,0.88,0.072,ND
2017/02/16,14:10,0.79,0.087,ND
2017/02/16,14:20,0.86,0.078,ND
2017/02/16,14:30,0.86,0.075,ND
2017/02/16,14:40,0.85,0.082,ND
2017/02/16,14:50,0.87,0.083,ND
2017/02/16,15:00,0.85,0.094,ND
2017/02/16,15:10,0.86,0.084,ND
2017/02/16,15:20,0.85,0.083,ND
2017/02/16,15:30,0.82,0.090,ND
2017/02/16,15:40,0.83,0.095,9.5
2017/02/16,15:50,0.81,0.093,ND
2017/02/16,16:00,0.80,0.088,9.5
2017/02/16,16:10,0.79,0.087,ND
2017/02/16,16:20,0.83,0.097,ND
2017/02/16,16:30,0.81,0.091,ND
2017/02/16,16:40,0.81,0.079,ND
2017/02/16,16:50,0.81,0.078,ND
2017/02/16,17:00,0.81,0.078,ND
2017/02/16,17:10,0.82,0.085,ND
2017/02/16,17:20,0.80,0.091,ND
2017/02/16,17:30,0.78,0.090,ND
2017/02/16,17:40,0.76,0.098,ND
2017/02/16,17:50,0.74,0.099,ND
2017/02/16,18:00,0.73,0.11,ND
2017/02/16,18:10,0.71,0.11,ND
2017/02/16,18:20,0.73,0.10,ND
2017/02/16,18:30,0.75,0.11,ND
2017/02/16,18:40,0.77,0.091,ND
2017/02/16,18:50,0.77,0.093,ND
2017/02/16,19:00,0.77,0.086,ND
2017/02/16,19:10,0.78,0.085,ND
2017/02/16,19:20,0.76,0.085,ND
2017/02/16,19:30,0.76,0.080,ND
2017/02/16,19:40,0.75,0.089,ND
2017/02/16,19:50,0.74,0.091,ND
2017/02/16,20:00,0.75,0.085,ND
2017/02/16,20:10,0.78,0.076,ND
2017/02/16,20:20,0.78,0.081,ND
2017/02/16,20:30,0.81,0.081,ND
2017/02/16,20:40,0.79,0.082,ND
2017/02/16,20:50,0.79,0.089,ND
2017/02/16,21:00,0.78,0.096,8.9
2017/02/16,21:10,0.78,0.093,ND
2017/02/16,21:20,0.79,0.091,11
2017/02/16,21:30,0.77,0.095,10
2017/02/16,21:40,0.80,0.096,10
2017/02/16,21:50,0.74,0.095,9.6
2017/02/16,22:00,0.83,0.079,ND
2017/02/16,22:10,0.82,0.086,ND
2017/02/16,22:20,0.74,0.093,ND
2017/02/16,22:30,0.82,0.085,ND
2017/02/16,22:40,0.84,0.077,ND
2017/02/16,22:50,0.86,0.072,ND
2017/02/16,23:00,0.82,0.086,ND
2017/02/16,23:10,0.84,0.076,ND
2017/02/16,23:20,0.85,0.075,10
2017/02/16,23:30,0.86,0.077,ND
2017/02/16,23:40,0.89,0.081,ND
2017/02/16,23:50,0.88,0.085,9.2
